contact:dominique.lefevre@mio.osupytheas.fr, maurice.libes@osupytheas.fr, didier.mallarino@osupytheas.fr
Project:EMSO http://www.emso-fr.org/EMSO-France
Depth: 2436.0 m
Title:EMSO Ligure Ouest : Data MII capteur MICROCAT
DateTime_Computer,Latitude,Longitude,Temperature,Conductivity,Pressure,DateTime_Instrument
DateTime_Computer,Latitude,Longitude,degC,S m-1,dbar,DateTime_Instrument
2020-11-01T00:02:01Z,42.805,6.029,13.3009,4.60032,2470.087,2020-11-01T02:02:56Z
2020-11-01T00:05:04Z,42.805,6.029,13.2999,4.60050,2470.124,2020-11-01T02:05:59Z
2020-11-01T00:08:07Z,42.805,6.029,13.3006,4.60044,2470.063,2020-11-01T02:09:03Z
2020-11-01T00:11:10Z,42.805,6.029,13.3000,4.60031,2470.063,2020-11-01T02:12:06Z
2020-11-01T00:14:13Z,42.805,6.029,13.3004,4.60045,2470.11,2020-11-01T02:15:09Z
2020-11-01T00:17:17Z,42.805,6.029,13.3000,4.60041,2470.063,2020-11-01T02:18:12Z
2020-11-01T00:20:20Z,42.805,6.029,13.3006,4.60039,2470.087,2020-11-01T02:21:15Z
2020-11-01T00:23:23Z,42.805,6.029,13.2979,4.60023,2470.077,2020-11-01T02:24:18Z
2020-11-01T00:26:26Z,42.805,6.029,13.3000,4.60036,2470.087,2020-11-01T02:27:21Z
2020-11-01T00:29:29Z,42.805,6.029,13.2990,4.60006,2470.063,2020-11-01T02:30:24Z
2020-11-01T00:32:32Z,42.805,6.029,13.3019,4.60035,2470.087,2020-11-01T02:33:27Z
2020-11-01T00:35:35Z,42.805,6.029,13.3006,4.60042,2470.063,2020-11-01T02:36:31Z
2020-11-01T00:38:38Z,42.805,6.029,13.3006,4.60016,2470.087,2020-11-01T02:39:34Z
2020-11-01T00:41:41Z,42.805,6.029,13.3014,4.60010,2470.063,2020-11-01T02:42:37Z
2020-11-01T00:44:45Z,42.805,6.029,13.2988,4.60036,2470.087,2020-11-01T02:45:40Z
2020-11-01T00:47:48Z,42.805,6.029,13.3002,4.60037,2470.077,2020-11-01T02:48:43Z
2020-11-01T00:50:51Z,42.805,6.029,13.2983,4.59992,2470.124,2020-11-01T02:51:46Z
2020-11-01T00:53:54Z,42.805,6.029,13.2993,4.59996,2470.053,2020-11-01T02:54:49Z
2020-11-01T00:56:57Z,42.805,6.029,13.3006,4.60035,2470.077,2020-11-01T02:57:52Z
2020-11-01T01:00:00Z,42.805,6.029,13.3023,4.60035,2470.087,2020-11-01T03:00:56Z
2020-11-01T01:03:03Z,42.805,6.029,13.2986,4.60022,2470.053,2020-11-01T03:03:59Z
2020-11-01T01:06:06Z,42.805,6.029,13.2996,4.60041,2470.1,2020-11-01T03:07:02Z
2020-11-01T01:09:10Z,42.805,6.029,13.3000,4.60047,2470.091,2020-11-01T03:10:05Z
2020-11-01T01:12:13Z,42.805,6.029,13.3019,4.60033,2470.077,2020-11-01T03:13:08Z
2020-11-01T01:15:16Z,42.805,6.029,13.3014,4.60053,2470.1,2020-11-01T03:16:11Z
2020-11-01T01:18:19Z,42.805,6.029,13.3022,4.59998,2470.077,2020-11-01T03:19:14Z
2020-11-01T01:21:22Z,42.805,6.029,13.3004,4.60019,2470.077,2020-11-01T03:22:17Z
2020-11-01T01:24:25Z,42.805,6.029,13.2981,4.60001,2470.04,2020-11-01T03:25:20Z
2020-11-01T01:27:28Z,42.805,6.029,13.3004,4.60067,2470.053,2020-11-01T03:28:24Z
2020-11-01T01:30:31Z,42.805,6.029,13.3004,4.60027,2470.063,2020-11-01T03:31:27Z
2020-11-01T01:33:34Z,42.805,6.029,13.3018,4.60046,2470.053,2020-11-01T03:34:30Z
2020-11-01T01:36:38Z,42.805,6.029,13.3000,4.60052,2470.053,2020-11-01T03:37:33Z
2020-11-01T01:39:41Z,42.805,6.029,13.2994,4.60059,2470.04,2020-11-01T03:40:36Z
2020-11-01T01:42:44Z,42.805,6.029,13.2993,4.60023,2470.077,2020-11-01T03:43:39Z
2020-11-01T01:45:47Z,42.805,6.029,13.3019,4.60042,2470.04,2020-11-01T03:46:42Z
2020-11-01T01:48:50Z,42.805,6.029,13.3003,4.60049,2470.063,2020-11-01T03:49:45Z
2020-11-01T01:51:53Z,42.805,6.029,13.3013,4.60051,2470.04,2020-11-01T03:52:49Z
2020-11-01T01:54:56Z,42.805,6.029,13.3010,4.60054,2470.04,2020-11-01T03:55:52Z
2020-11-01T01:57:59Z,42.805,6.029,13.3020,4.60057,2470.063,2020-11-01T03:58:55Z
2020-11-01T02:01:03Z,42.805,6.029,13.3002,4.60047,2470.124,2020-11-01T04:01:58Z
2020-11-01T02:04:06Z,42.805,6.029,13.3028,4.60026,2470.087,2020-11-01T04:05:01Z
2020-11-01T02:07:09Z,42.805,6.029,13.3026,4.60046,2470.063,2020-11-01T04:08:04Z
2020-11-01T02:10:12Z,42.805,6.029,13.2984,4.60032,2470.017,2020-11-01T04:11:07Z
2020-11-01T02:13:15Z,42.805,6.029,13.3006,4.60046,2470.04,2020-11-01T04:14:10Z
2020-11-01T02:16:18Z,42.805,6.029,13.2999,4.60051,2470.04,2020-11-01T04:17:13Z
2020-11-01T02:19:21Z,42.805,6.029,13.3009,4.60034,2470.077,2020-11-01T04:20:17Z
2020-11-01T02:22:24Z,42.805,6.029,13.3011,4.60059,2470.087,2020-11-01T04:23:20Z
2020-11-01T02:25:27Z,42.805,6.029,13.2998,4.60049,2470.077,2020-11-01T04:26:23Z
2020-11-01T02:28:31Z,42.805,6.029,13.3000,4.60031,2470.1,2020-11-01T04:29:26Z
2020-11-01T02:31:34Z,42.805,6.029,13.3010,4.60031,2470.063,2020-11-01T04:32:29Z
2020-11-01T02:34:37Z,42.805,6.029,13.3001,4.60039,2470.053,2020-11-01T04:35:32Z
2020-11-01T02:37:40Z,42.805,6.029,13.2998,4.60003,2470.087,2020-11-01T04:38:35Z
2020-11-01T02:40:43Z,42.805,6.029,13.3002,4.60039,2470.063,2020-11-01T04:41:38Z
2020-11-01T02:43:46Z,42.805,6.029,13.3009,4.60028,2470.063,2020-11-01T04:44:42Z
2020-11-01T02:46:49Z,42.805,6.029,13.2983,4.60014,2470.04,2020-11-01T04:47:45Z
2020-11-01T02:49:52Z,42.805,6.029,13.3015,4.60029,2470.077,2020-11-01T04:50:48Z
2020-11-01T02:52:56Z,42.805,6.029,13.3018,4.60037,2470.1,2020-11-01T04:53:51Z
2020-11-01T02:55:59Z,42.805,6.029,13.2999,4.60036,2470.077,2020-11-01T04:56:54Z
2020-11-01T02:59:02Z,42.805,6.029,13.3001,4.60021,2470.077,2020-11-01T04:59:57Z
2020-11-01T03:02:05Z,42.805,6.029,13.3009,4.60019,2470.11,2020-11-01T05:03:00Z
2020-11-01T03:05:08Z,42.805,6.029,13.3004,4.60039,2470.11,2020-11-01T05:06:03Z
2020-11-01T03:08:11Z,42.805,6.029,13.2998,4.60041,2470.1,2020-11-01T05:09:06Z
2020-11-01T03:11:14Z,42.805,6.029,13.2997,4.60054,2470.1,2020-11-01T05:12:10Z
2020-11-01T03:14:17Z,42.805,6.029,13.2986,4.60046,2470.1,2020-11-01T05:15:13Z
2020-11-01T03:17:20Z,42.805,6.029,13.3013,4.60046,2470.1,2020-11-01T05:18:16Z
2020-11-01T03:20:24Z,42.805,6.029,13.2998,4.60052,2470.1,2020-11-01T05:21:19Z
2020-11-01T03:23:27Z,42.805,6.029,13.3006,4.60036,2470.077,2020-11-01T05:24:22Z
2020-11-01T03:26:30Z,42.805,6.029,13.3005,4.60041,2470.087,2020-11-01T05:27:25Z
2020-11-01T03:29:33Z,42.805,6.029,13.2983,4.60031,2470.147,2020-11-01T05:30:28Z
2020-11-01T03:32:36Z,42.805,6.029,13.3004,4.60026,2470.11,2020-11-01T05:33:31Z
2020-11-01T03:35:39Z,42.805,6.029,13.3007,4.60041,2470.087,2020-11-01T05:36:35Z
2020-11-01T03:38:42Z,42.805,6.029,13.3006,4.60046,2470.124,2020-11-01T05:39:38Z
2020-11-01T03:41:45Z,42.805,6.029,13.2998,4.60037,2470.11,2020-11-01T05:42:41Z
2020-11-01T03:44:48Z,42.805,6.029,13.3011,4.60043,2470.11,2020-11-01T05:45:44Z
2020-11-01T03:47:52Z,42.805,6.029,13.3014,4.60045,2470.124,2020-11-01T05:48:47Z
2020-11-01T03:50:55Z,42.805,6.029,13.2980,4.60016,2470.124,2020-11-01T05:51:50Z
2020-11-01T03:53:58Z,42.805,6.029,13.2979,4.60014,2470.147,2020-11-01T05:54:53Z
2020-11-01T03:57:01Z,42.805,6.029,13.2988,4.60023,2470.171,2020-11-01T05:57:56Z
2020-11-01T04:00:04Z,42.805,6.029,13.3007,4.60033,2470.124,2020-11-01T06:01:00Z
2020-11-01T04:03:07Z,42.805,6.029,13.2986,4.60032,2470.133,2020-11-01T06:04:03Z
2020-11-01T04:06:10Z,42.805,6.029,13.2996,4.60020,2470.147,2020-11-01T06:07:06Z
2020-11-01T04:09:13Z,42.805,6.029,13.3014,4.60011,2470.156,2020-11-01T06:10:09Z
2020-11-01T04:12:17Z,42.805,6.029,13.2993,4.60036,2470.133,2020-11-01T06:13:12Z
2020-11-01T04:15:20Z,42.805,6.029,13.2989,4.60021,2470.171,2020-11-01T06:16:15Z
2020-11-01T04:18:23Z,42.805,6.029,13.2991,4.60023,2470.147,2020-11-01T06:19:18Z
2020-11-01T04:21:26Z,42.805,6.029,13.2998,4.60018,2470.133,2020-11-01T06:22:21Z
2020-11-01T04:24:29Z,42.805,6.029,13.3002,4.60022,2470.133,2020-11-01T06:25:24Z
2020-11-01T04:27:32Z,42.805,6.029,13.2992,4.60033,2470.147,2020-11-01T06:28:28Z
2020-11-01T04:30:35Z,42.805,6.029,13.2985,4.60004,2470.133,2020-11-01T06:31:31Z
2020-11-01T04:33:38Z,42.805,6.029,13.3008,4.60016,2470.194,2020-11-01T06:34:34Z
2020-11-01T04:36:41Z,42.805,6.029,13.2982,4.60003,2470.147,2020-11-01T06:37:37Z
2020-11-01T04:39:45Z,42.805,6.029,13.2982,4.60010,2470.18,2020-11-01T06:40:40Z
2020-11-01T04:42:48Z,42.805,6.029,13.2984,4.59999,2470.194,2020-11-01T06:43:43Z
2020-11-01T04:45:51Z,42.805,6.029,13.2980,4.59994,2470.171,2020-11-01T06:46:46Z
2020-11-01T04:48:54Z,42.805,6.029,13.2982,4.59997,2470.203,2020-11-01T06:49:49Z
2020-11-01T04:51:57Z,42.805,6.029,13.2985,4.60004,2470.194,2020-11-01T06:52:52Z
2020-11-01T04:55:00Z,42.805,6.029,13.2986,4.59998,2470.156,2020-11-01T06:55:56Z
2020-11-01T04:58:03Z,42.805,6.029,13.2983,4.60010,2470.133,2020-11-01T06:58:59Z
2020-11-01T05:01:06Z,42.805,6.029,13.2995,4.60006,2470.147,2020-11-01T07:02:02Z
2020-11-01T05:04:10Z,42.805,6.029,13.2997,4.60006,2470.18,2020-11-01T07:05:05Z
2020-11-01T05:07:13Z,42.805,6.029,13.3004,4.60023,2470.18,2020-11-01T07:08:08Z
2020-11-01T05:10:16Z,42.805,6.029,13.3006,4.60021,2470.156,2020-11-01T07:11:11Z
2020-11-01T05:13:19Z,42.805,6.029,13.3001,4.60021,2470.18,2020-11-01T07:14:14Z
2020-11-01T05:16:22Z,42.805,6.029,13.3001,4.60031,2470.203,2020-11-01T07:17:17Z
2020-11-01T05:19:25Z,42.805,6.029,13.2994,4.60026,2470.203,2020-11-01T07:20:21Z
2020-11-01T05:22:28Z,42.805,6.029,13.2991,4.60024,2470.227,2020-11-01T07:23:24Z
2020-11-01T05:25:31Z,42.805,6.029,13.2990,4.60026,2470.203,2020-11-01T07:26:27Z
2020-11-01T05:28:34Z,42.805,6.029,13.3006,4.60027,2470.227,2020-11-01T07:29:30Z
2020-11-01T05:31:38Z,42.805,6.029,13.2992,4.60036,2470.194,2020-11-01T07:32:33Z
2020-11-01T05:34:41Z,42.805,6.029,13.2989,4.60018,2470.217,2020-11-01T07:35:36Z
2020-11-01T05:37:44Z,42.805,6.029,13.2984,4.60018,2470.203,2020-11-01T07:38:39Z
2020-11-01T05:40:47Z,42.805,6.029,13.2993,4.60033,2470.24,2020-11-01T07:41:42Z
2020-11-01T05:43:50Z,42.805,6.029,13.2983,4.60036,2470.24,2020-11-01T07:44:45Z
2020-11-01T05:46:53Z,42.805,6.029,13.3008,4.60035,2470.24,2020-11-01T07:47:49Z
2020-11-01T05:49:56Z,42.805,6.029,13.2990,4.60029,2470.217,2020-11-01T07:50:52Z
2020-11-01T05:52:59Z,42.805,6.029,13.2990,4.60023,2470.227,2020-11-01T07:53:55Z
2020-11-01T05:56:03Z,42.805,6.029,13.2996,4.60018,2470.227,2020-11-01T07:56:58Z
2020-11-01T05:59:06Z,42.805,6.029,13.2983,4.60016,2470.203,2020-11-01T08:00:01Z
2020-11-01T06:02:09Z,42.805,6.029,13.2984,4.60010,2470.227,2020-11-01T08:03:04Z
2020-11-01T06:05:12Z,42.805,6.029,13.2990,4.60004,2470.227,2020-11-01T08:06:07Z
2020-11-01T06:08:15Z,42.805,6.029,13.2985,4.60010,2470.25,2020-11-01T08:09:10Z
2020-11-01T06:11:18Z,42.805,6.029,13.2991,4.60022,2470.25,2020-11-01T08:12:13Z
2020-11-01T06:14:21Z,42.805,6.029,13.3000,4.60046,2470.24,2020-11-01T08:15:17Z
2020-11-01T06:17:24Z,42.805,6.029,13.2996,4.60006,2470.25,2020-11-01T08:18:20Z
2020-11-01T06:20:27Z,42.805,6.029,13.3005,4.60043,2470.264,2020-11-01T08:21:23Z
2020-11-01T06:23:31Z,42.805,6.029,13.2996,4.60027,2470.264,2020-11-01T08:24:26Z
2020-11-01T06:26:34Z,42.805,6.029,13.2984,4.60015,2470.227,2020-11-01T08:27:29Z
2020-11-01T06:29:37Z,42.805,6.029,13.2984,4.59996,2470.287,2020-11-01T08:30:32Z
2020-11-01T06:32:40Z,42.805,6.029,13.2985,4.60006,2470.24,2020-11-01T08:33:35Z
2020-11-01T06:35:43Z,42.805,6.029,13.2992,4.60034,2470.273,2020-11-01T08:36:38Z
2020-11-01T06:38:46Z,42.805,6.029,13.2990,4.60025,2470.25,2020-11-01T08:39:42Z
2020-11-01T06:41:49Z,42.805,6.029,13.2982,4.60016,2470.25,2020-11-01T08:42:45Z
2020-11-01T06:44:52Z,42.805,6.029,13.2983,4.60004,2470.25,2020-11-01T08:45:48Z
2020-11-01T06:47:56Z,42.805,6.029,13.2991,4.60003,2470.24,2020-11-01T08:48:51Z
2020-11-01T06:50:59Z,42.805,6.029,13.2984,4.60021,2470.273,2020-11-01T08:51:54Z
2020-11-01T06:54:02Z,42.805,6.029,13.2991,4.60031,2470.264,2020-11-01T08:54:57Z
2020-11-01T06:57:05Z,42.805,6.029,13.2984,4.60006,2470.273,2020-11-01T08:58:00Z
2020-11-01T07:00:08Z,42.805,6.029,13.2987,4.60021,2470.297,2020-11-01T09:01:03Z
2020-11-01T07:03:11Z,42.805,6.029,13.2991,4.60003,2470.264,2020-11-01T09:04:06Z
2020-11-01T07:06:14Z,42.805,6.029,13.2990,4.60024,2470.273,2020-11-01T09:07:10Z
2020-11-01T07:09:17Z,42.805,6.029,13.3005,4.60040,2470.273,2020-11-01T09:10:13Z
2020-11-01T07:12:20Z,42.805,6.029,13.2997,4.60031,2470.287,2020-11-01T09:13:16Z
2020-11-01T07:15:24Z,42.805,6.029,13.3000,4.60036,2470.25,2020-11-01T09:16:19Z
2020-11-01T07:18:27Z,42.805,6.029,13.2993,4.60045,2470.25,2020-11-01T09:19:22Z
2020-11-01T07:21:30Z,42.805,6.029,13.2998,4.60014,2470.297,2020-11-01T09:22:25Z
2020-11-01T07:24:33Z,42.805,6.029,13.2996,4.60014,2470.297,2020-11-01T09:25:28Z
2020-11-01T07:27:36Z,42.805,6.029,13.2991,4.60002,2470.25,2020-11-01T09:28:31Z
2020-11-01T07:30:39Z,42.805,6.029,13.2982,4.60009,2470.264,2020-11-01T09:31:35Z
2020-11-01T07:33:42Z,42.805,6.029,13.2989,4.60009,2470.273,2020-11-01T09:34:38Z
2020-11-01T07:36:45Z,42.805,6.029,13.2983,4.60027,2470.264,2020-11-01T09:37:41Z
2020-11-01T07:39:49Z,42.805,6.029,13.2984,4.60016,2470.273,2020-11-01T09:40:44Z
2020-11-01T07:42:52Z,42.805,6.029,13.2982,4.60003,2470.25,2020-11-01T09:43:47Z
2020-11-01T07:45:55Z,42.805,6.029,13.2987,4.60010,2470.273,2020-11-01T09:46:50Z
2020-11-01T07:48:58Z,42.805,6.029,13.2985,4.60006,2470.25,2020-11-01T09:49:53Z
2020-11-01T07:52:01Z,42.805,6.029,13.2986,4.60003,2470.273,2020-11-01T09:52:56Z
2020-11-01T07:55:04Z,42.805,6.029,13.2996,4.60008,2470.25,2020-11-01T09:56:00Z
2020-11-01T07:58:07Z,42.805,6.029,13.2986,4.60033,2470.287,2020-11-01T09:59:03Z
2020-11-01T08:01:10Z,42.805,6.029,13.2992,4.60016,2470.264,2020-11-01T10:02:06Z
2020-11-01T08:04:13Z,42.805,6.029,13.2995,4.60022,2470.25,2020-11-01T10:05:09Z
2020-11-01T08:07:17Z,42.805,6.029,13.2998,4.60016,2470.297,2020-11-01T10:08:12Z
2020-11-01T08:10:20Z,42.805,6.029,13.3009,4.60024,2470.273,2020-11-01T10:11:15Z
2020-11-01T08:13:23Z,42.805,6.029,13.3000,4.60024,2470.297,2020-11-01T10:14:18Z
2020-11-01T08:16:26Z,42.805,6.029,13.2987,4.60013,2470.287,2020-11-01T10:17:21Z
2020-11-01T08:19:29Z,42.805,6.029,13.2986,4.60003,2470.287,2020-11-01T10:20:24Z
2020-11-01T08:22:32Z,42.805,6.029,13.2983,4.60007,2470.287,2020-11-01T10:23:28Z
2020-11-01T08:25:35Z,42.805,6.029,13.2981,4.60009,2470.264,2020-11-01T10:26:31Z
2020-11-01T08:28:38Z,42.805,6.029,13.2983,4.60001,2470.227,2020-11-01T10:29:34Z
2020-11-01T08:31:42Z,42.805,6.029,13.2991,4.60002,2470.297,2020-11-01T10:32:37Z
2020-11-01T08:34:45Z,42.805,6.029,13.2981,4.60000,2470.25,2020-11-01T10:35:40Z
2020-11-01T08:37:48Z,42.805,6.029,13.2988,4.59999,2470.24,2020-11-01T10:38:43Z
2020-11-01T08:40:51Z,42.805,6.029,13.2982,4.60015,2470.287,2020-11-01T10:41:46Z
2020-11-01T08:43:54Z,42.805,6.029,13.2983,4.59997,2470.264,2020-11-01T10:44:49Z
2020-11-01T08:46:57Z,42.805,6.029,13.2986,4.60026,2470.297,2020-11-01T10:47:53Z
2020-11-01T08:50:00Z,42.805,6.029,13.2979,4.60004,2470.273,2020-11-01T10:50:56Z
2020-11-01T08:53:03Z,42.805,6.029,13.2983,4.59998,2470.287,2020-11-01T10:53:59Z
2020-11-01T08:56:07Z,42.805,6.029,13.2983,4.59999,2470.297,2020-11-01T10:57:02Z
2020-11-01T08:59:10Z,42.805,6.029,13.2983,4.59992,2470.287,2020-11-01T11:00:05Z
2020-11-01T09:02:13Z,42.805,6.029,13.2984,4.60008,2470.227,2020-11-01T11:03:08Z
2020-11-01T09:05:16Z,42.805,6.029,13.2978,4.59999,2470.273,2020-11-01T11:06:11Z
2020-11-01T09:08:19Z,42.805,6.029,13.2982,4.59996,2470.26,2020-11-01T11:09:14Z
2020-11-01T09:11:22Z,42.805,6.029,13.2981,4.59997,2470.25,2020-11-01T11:12:18Z
2020-11-01T09:14:25Z,42.805,6.029,13.2982,4.60014,2470.25,2020-11-01T11:15:21Z
2020-11-01T09:17:28Z,42.805,6.029,13.2980,4.59992,2470.25,2020-11-01T11:18:24Z
2020-11-01T09:20:32Z,42.805,6.029,13.2979,4.59996,2470.25,2020-11-01T11:21:27Z
2020-11-01T09:23:35Z,42.805,6.029,13.2983,4.59991,2470.24,2020-11-01T11:24:30Z
2020-11-01T09:26:38Z,42.805,6.029,13.2986,4.60020,2470.25,2020-11-01T11:27:33Z
2020-11-01T09:29:41Z,42.805,6.029,13.3008,4.60016,2470.25,2020-11-01T11:30:36Z
2020-11-01T09:32:44Z,42.805,6.029,13.2984,4.60004,2470.227,2020-11-01T11:33:39Z
2020-11-01T09:35:47Z,42.805,6.029,13.2985,4.60007,2470.24,2020-11-01T11:36:43Z
2020-11-01T09:38:50Z,42.805,6.029,13.2991,4.60002,2470.227,2020-11-01T11:39:46Z
2020-11-01T09:41:53Z,42.805,6.029,13.2983,4.59993,2470.25,2020-11-01T11:42:49Z
2020-11-01T09:44:57Z,42.805,6.029,13.2982,4.60006,2470.25,2020-11-01T11:45:52Z
2020-11-01T09:48:00Z,42.805,6.029,13.2976,4.59991,2470.287,2020-11-01T11:48:55Z
2020-11-01T09:51:03Z,42.805,6.029,13.2980,4.59997,2470.203,2020-11-01T11:51:58Z
2020-11-01T09:54:06Z,42.805,6.029,13.2982,4.60005,2470.25,2020-11-01T11:55:01Z
2020-11-01T09:57:09Z,42.805,6.029,13.2979,4.59995,2470.264,2020-11-01T11:58:04Z
2020-11-01T10:00:12Z,42.805,6.029,13.2978,4.59999,2470.227,2020-11-01T12:01:08Z
2020-11-01T10:03:15Z,42.805,6.029,13.2988,4.60007,2470.227,2020-11-01T12:04:11Z
2020-11-01T10:06:18Z,42.805,6.029,13.2990,4.60002,2470.227,2020-11-01T12:07:14Z
2020-11-01T10:09:22Z,42.805,6.029,13.2990,4.60004,2470.24,2020-11-01T12:10:17Z
2020-11-01T10:12:25Z,42.805,6.029,13.2986,4.59993,2470.203,2020-11-01T12:13:20Z
2020-11-01T10:15:28Z,42.805,6.029,13.2979,4.60000,2470.227,2020-11-01T12:16:23Z
2020-11-01T10:18:31Z,42.805,6.029,13.2979,4.60001,2470.25,2020-11-01T12:19:26Z
2020-11-01T10:21:34Z,42.805,6.029,13.2987,4.60001,2470.18,2020-11-01T12:22:29Z
2020-11-01T10:24:37Z,42.805,6.029,13.2982,4.60003,2470.203,2020-11-01T12:25:32Z
2020-11-01T10:27:40Z,42.805,6.029,13.2977,4.59996,2470.217,2020-11-01T12:28:36Z
2020-11-01T10:30:43Z,42.805,6.029,13.2983,4.60005,2470.203,2020-11-01T12:31:39Z
2020-11-01T10:33:46Z,42.805,6.029,13.2986,4.60020,2470.217,2020-11-01T12:34:42Z
2020-11-01T10:36:50Z,42.805,6.029,13.2996,4.60006,2470.24,2020-11-01T12:37:45Z
2020-11-01T10:39:53Z,42.805,6.029,13.2984,4.59999,2470.18,2020-11-01T12:40:48Z
2020-11-01T10:42:56Z,42.805,6.029,13.2982,4.59991,2470.203,2020-11-01T12:43:51Z
2020-11-01T10:45:59Z,42.805,6.029,13.2983,4.59996,2470.203,2020-11-01T12:46:54Z
2020-11-01T10:49:02Z,42.805,6.029,13.2981,4.60002,2470.217,2020-11-01T12:49:57Z
2020-11-01T10:52:05Z,42.805,6.029,13.2975,4.59992,2470.203,2020-11-01T12:53:01Z
2020-11-01T10:55:08Z,42.805,6.029,13.2976,4.59997,2470.156,2020-11-01T12:56:04Z
2020-11-01T10:58:11Z,42.805,6.029,13.2984,4.60002,2470.203,2020-11-01T12:59:07Z
2020-11-01T11:01:15Z,42.805,6.029,13.2985,4.60014,2470.194,2020-11-01T13:02:10Z
2020-11-01T11:04:18Z,42.805,6.029,13.2991,4.60014,2470.171,2020-11-01T13:05:13Z
2020-11-01T11:07:21Z,42.805,6.029,13.2992,4.60025,2470.217,2020-11-01T13:08:16Z
2020-11-01T11:10:24Z,42.805,6.029,13.2980,4.60006,2470.18,2020-11-01T13:11:19Z
2020-11-01T11:13:27Z,42.805,6.029,13.2983,4.60014,2470.18,2020-11-01T13:14:22Z
2020-11-01T11:16:30Z,42.805,6.029,13.2982,4.59999,2470.24,2020-11-01T13:17:26Z
2020-11-01T11:19:33Z,42.805,6.029,13.2990,4.60016,2470.194,2020-11-01T13:20:29Z
2020-11-01T11:22:36Z,42.805,6.029,13.2998,4.60022,2470.147,2020-11-01T13:23:32Z
2020-11-01T11:25:40Z,42.805,6.029,13.2987,4.60029,2470.156,2020-11-01T13:26:35Z
2020-11-01T11:28:43Z,42.805,6.029,13.2984,4.60026,2470.171,2020-11-01T13:29:38Z
2020-11-01T11:31:46Z,42.805,6.029,13.2977,4.60013,2470.171,2020-11-01T13:32:41Z
2020-11-01T11:34:49Z,42.805,6.029,13.2983,4.60007,2470.194,2020-11-01T13:35:44Z
2020-11-01T11:37:52Z,42.805,6.029,13.2979,4.60001,2470.147,2020-11-01T13:38:47Z
2020-11-01T11:40:55Z,42.805,6.029,13.2986,4.60010,2470.147,2020-11-01T13:41:51Z
2020-11-01T11:43:58Z,42.805,6.029,13.2992,4.60016,2470.18,2020-11-01T13:44:54Z
2020-11-01T11:47:01Z,42.805,6.029,13.2982,4.59998,2470.194,2020-11-01T13:47:57Z
2020-11-01T11:50:05Z,42.805,6.029,13.2983,4.59998,2470.156,2020-11-01T13:51:00Z
2020-11-01T11:53:08Z,42.805,6.029,13.2978,4.60019,2470.18,2020-11-01T13:54:03Z
2020-11-01T11:56:11Z,42.805,6.029,13.2986,4.60022,2470.133,2020-11-01T13:57:06Z
2020-11-01T11:59:14Z,42.805,6.029,13.2991,4.60008,2470.133,2020-11-01T14:00:09Z
2020-11-01T12:02:17Z,42.805,6.029,13.2986,4.60009,2470.156,2020-11-01T14:03:12Z
2020-11-01T12:05:20Z,42.805,6.029,13.2986,4.59990,2470.133,2020-11-01T14:06:16Z
2020-11-01T12:08:23Z,42.805,6.029,13.2981,4.59994,2470.147,2020-11-01T14:09:19Z
2020-11-01T12:11:26Z,42.805,6.029,13.2989,4.60003,2470.147,2020-11-01T14:12:22Z
2020-11-01T12:14:30Z,42.805,6.029,13.2987,4.60010,2470.156,2020-11-01T14:15:25Z
2020-11-01T12:17:33Z,42.805,6.029,13.2996,4.60012,2470.194,2020-11-01T14:18:28Z
2020-11-01T12:20:36Z,42.805,6.029,13.2982,4.59995,2470.11,2020-11-01T14:21:31Z
2020-11-01T12:23:39Z,42.805,6.029,13.2990,4.59996,2470.147,2020-11-01T14:24:34Z
2020-11-01T12:26:42Z,42.805,6.029,13.2989,4.60014,2470.11,2020-11-01T14:27:37Z
2020-11-01T12:29:45Z,42.805,6.029,13.2991,4.60005,2470.133,2020-11-01T14:30:41Z
2020-11-01T12:32:48Z,42.805,6.029,13.2981,4.59999,2470.124,2020-11-01T14:33:44Z
2020-11-01T12:35:51Z,42.805,6.029,13.2993,4.60017,2470.171,2020-11-01T14:36:47Z
2020-11-01T12:38:55Z,42.805,6.029,13.2979,4.59995,2470.147,2020-11-01T14:39:50Z
2020-11-01T12:41:58Z,42.805,6.029,13.2987,4.60003,2470.11,2020-11-01T14:42:53Z
2020-11-01T12:45:01Z,42.805,6.029,13.2979,4.59996,2470.133,2020-11-01T14:45:56Z
2020-11-01T12:48:04Z,42.805,6.029,13.2986,4.59994,2470.11,2020-11-01T14:48:59Z
2020-11-01T12:51:07Z,42.805,6.029,13.2979,4.59991,2470.124,2020-11-01T14:52:02Z
2020-11-01T12:54:10Z,42.805,6.029,13.2981,4.59993,2470.147,2020-11-01T14:55:06Z
2020-11-01T12:57:13Z,42.805,6.029,13.2979,4.59996,2470.147,2020-11-01T14:58:09Z
2020-11-01T13:00:16Z,42.805,6.029,13.2979,4.59998,2470.147,2020-11-01T15:01:12Z
2020-11-01T13:03:20Z,42.805,6.029,13.2974,4.59991,2470.11,2020-11-01T15:04:15Z
2020-11-01T13:06:23Z,42.805,6.029,13.2981,4.59995,2470.11,2020-11-01T15:07:18Z
2020-11-01T13:09:26Z,42.805,6.029,13.2986,4.60000,2470.147,2020-11-01T15:10:21Z
2020-11-01T13:12:29Z,42.805,6.029,13.2990,4.60017,2470.124,2020-11-01T15:13:24Z
2020-11-01T13:15:32Z,42.805,6.029,13.2995,4.60025,2470.133,2020-11-01T15:16:27Z
2020-11-01T13:18:35Z,42.805,6.029,13.2996,4.60015,2470.11,2020-11-01T15:19:31Z
2020-11-01T13:21:38Z,42.805,6.029,13.2995,4.60032,2470.11,2020-11-01T15:22:34Z
2020-11-01T13:24:41Z,42.805,6.029,13.2996,4.60003,2470.124,2020-11-01T15:25:37Z
2020-11-01T13:27:44Z,42.805,6.029,13.2992,4.60016,2470.096,2020-11-01T15:28:40Z
2020-11-01T13:30:48Z,42.805,6.029,13.2988,4.60006,2470.124,2020-11-01T15:31:43Z
2020-11-01T13:33:51Z,42.805,6.029,13.3000,4.60017,2470.11,2020-11-01T15:34:46Z
2020-11-01T13:36:54Z,42.805,6.029,13.2981,4.59989,2470.133,2020-11-01T15:37:49Z
2020-11-01T13:39:57Z,42.805,6.029,13.2975,4.59986,2470.11,2020-11-01T15:40:52Z
2020-11-01T13:43:00Z,42.805,6.029,13.2984,4.59989,2470.133,2020-11-01T15:43:56Z
2020-11-01T13:46:03Z,42.805,6.029,13.2986,4.59988,2470.133,2020-11-01T15:46:59Z
2020-11-01T13:49:06Z,42.805,6.029,13.2987,4.60003,2470.147,2020-11-01T15:50:02Z
2020-11-01T13:52:09Z,42.805,6.029,13.3003,4.60021,2470.11,2020-11-01T15:53:05Z
2020-11-01T13:55:13Z,42.805,6.029,13.2990,4.60021,2470.063,2020-11-01T15:56:08Z
2020-11-01T13:58:16Z,42.805,6.029,13.2990,4.60016,2470.133,2020-11-01T15:59:11Z
2020-11-01T14:01:19Z,42.805,6.029,13.2996,4.60018,2470.1,2020-11-01T16:02:14Z
2020-11-01T14:04:22Z,42.805,6.029,13.2999,4.60033,2470.124,2020-11-01T16:05:17Z
2020-11-01T14:07:25Z,42.805,6.029,13.2996,4.60019,2470.087,2020-11-01T16:08:21Z
2020-11-01T14:10:28Z,42.805,6.029,13.2998,4.60026,2470.1,2020-11-01T16:11:24Z
2020-11-01T14:13:31Z,42.805,6.029,13.3000,4.60014,2470.11,2020-11-01T16:14:27Z
2020-11-01T14:16:34Z,42.805,6.029,13.3002,4.59997,2470.147,2020-11-01T16:17:30Z
2020-11-01T14:19:38Z,42.805,6.029,13.3002,4.60036,2470.087,2020-11-01T16:20:33Z
2020-11-01T14:22:41Z,42.805,6.029,13.2997,4.60012,2470.11,2020-11-01T16:23:36Z
2020-11-01T14:25:44Z,42.805,6.029,13.2994,4.60027,2470.124,2020-11-01T16:26:39Z
2020-11-01T14:28:47Z,42.805,6.029,13.2986,4.60009,2470.11,2020-11-01T16:29:42Z
2020-11-01T14:31:50Z,42.805,6.029,13.3003,4.60017,2470.087,2020-11-01T16:32:46Z
2020-11-01T14:34:53Z,42.805,6.029,13.2991,4.60024,2470.147,2020-11-01T16:35:49Z
2020-11-01T14:37:56Z,42.805,6.029,13.2998,4.60045,2470.11,2020-11-01T16:38:52Z
2020-11-01T14:40:59Z,42.805,6.029,13.3000,4.60036,2470.11,2020-11-01T16:41:55Z
2020-11-01T14:44:03Z,42.805,6.029,13.2986,4.60028,2470.11,2020-11-01T16:44:58Z
2020-11-01T14:47:06Z,42.805,6.029,13.2994,4.60031,2470.11,2020-11-01T16:48:01Z
2020-11-01T14:50:09Z,42.805,6.029,13.3003,4.60038,2470.11,2020-11-01T16:51:04Z
2020-11-01T14:53:12Z,42.805,6.029,13.2982,4.60004,2470.11,2020-11-01T16:54:07Z
2020-11-01T14:56:15Z,42.805,6.029,13.2981,4.60005,2470.11,2020-11-01T16:57:10Z
2020-11-01T14:59:18Z,42.805,6.029,13.3008,4.60020,2470.087,2020-11-01T17:00:14Z
2020-11-01T15:02:21Z,42.805,6.029,13.2993,4.60013,2470.124,2020-11-01T17:03:17Z